Year,Month,Day,Hour,Minute,Value (Times are PST for temperature in C)
2011,08,11,00,00,15.00
2011,08,11,00,01,15.00
2011,08,11,00,02,15.00
2011,08,11,00,03,15.00
2011,08,11,00,04,15.00
2011,08,11,00,05,15.00
2011,08,11,00,06,15.00
2011,08,11,00,07,15.00
2011,08,11,00,08,15.00
2011,08,11,00,09,15.00
2011,08,11,00,10,15.00
2011,08,11,00,11,15.00
2011,08,11,00,12,15.00
2011,08,11,00,13,15.00
2011,08,11,00,14,15.00
2011,08,11,00,15,15.00
2011,08,11,00,16,15.00
2011,08,11,00,17,15.00
2011,08,11,00,18,15.00
2011,08,11,00,19,15.00
2011,08,11,00,20,15.00
2011,08,11,00,21,15.00
2011,08,11,00,22,15.00
2011,08,11,00,23,15.00
2011,08,11,00,24,15.00
2011,08,11,00,25,15.00
2011,08,11,00,26,15.00
2011,08,11,00,27,15.00
2011,08,11,00,28,15.00
2011,08,11,00,29,15.00
2011,08,11,00,30,15.00
2011,08,11,00,31,15.00
2011,08,11,00,32,15.00
2011,08,11,00,33,15.00
2011,08,11,00,34,15.00
2011,08,11,00,35,15.00
2011,08,11,00,36,15.00
2011,08,11,00,37,15.00
2011,08,11,00,38,15.00
2011,08,11,00,39,15.00
2011,08,11,00,40,15.00
2011,08,11,00,41,15.00
2011,08,11,00,42,15.00
2011,08,11,00,43,15.00
2011,08,11,00,44,15.00
2011,08,11,00,45,15.00
2011,08,11,00,46,15.00
2011,08,11,00,47,15.00
2011,08,11,00,48,15.00
2011,08,11,00,49,15.00
2011,08,11,00,50,15.00
2011,08,11,00,51,15.00
2011,08,11,00,52,15.00
2011,08,11,00,53,15.00
2011,08,11,00,54,15.00
2011,08,11,00,55,15.00
2011,08,11,00,56,15.00
2011,08,11,00,57,15.00
2011,08,11,00,58,15.00
2011,08,11,01,05,15.00
2011,08,11,01,06,14.90
2011,08,11,01,07,14.90
2011,08,11,01,08,14.90
2011,08,11,01,09,15.00
2011,08,11,01,10,14.90
2011,08,11,01,11,14.90
2011,08,11,01,12,14.90
2011,08,11,01,13,14.90
2011,08,11,01,14,14.90
2011,08,11,01,15,14.90
2011,08,11,01,16,14.90
2011,08,11,01,17,14.90
2011,08,11,01,18,14.90
2011,08,11,01,19,14.90
2011,08,11,01,20,14.90
2011,08,11,01,21,14.90
2011,08,11,01,22,14.90
2011,08,11,01,23,14.90
2011,08,11,01,24,14.90
2011,08,11,01,25,14.90
2011,08,11,01,26,14.80
2011,08,11,01,27,14.80
2011,08,11,01,28,14.80
2011,08,11,01,29,14.80
2011,08,11,01,30,14.80
2011,08,11,01,31,14.80
2011,08,11,01,32,14.80
2011,08,11,01,33,14.80
2011,08,11,01,34,14.80
2011,08,11,01,35,14.80
2011,08,11,01,36,14.80
2011,08,11,01,37,14.80
2011,08,11,01,38,14.80
2011,08,11,01,39,14.80
2011,08,11,01,40,14.80
2011,08,11,01,41,14.80
2011,08,11,01,42,14.80
2011,08,11,01,43,14.70
2011,08,11,01,44,14.80
2011,08,11,01,45,14.70
2011,08,11,01,46,14.70
2011,08,11,01,47,14.70
2011,08,11,01,48,14.70
2011,08,11,01,49,14.70
2011,08,11,01,50,14.70
2011,08,11,01,51,14.70
2011,08,11,01,52,14.70
2011,08,11,01,53,14.70
2011,08,11,01,54,14.70
2011,08,11,01,55,14.70
2011,08,11,01,56,14.70
2011,08,11,01,57,14.70
2011,08,11,01,58,14.70
2011,08,11,01,59,14.70
2011,08,11,02,00,14.70
2011,08,11,02,01,14.70
2011,08,11,02,02,14.70
2011,08,11,02,03,14.70
2011,08,11,02,04,14.70
2011,08,11,02,05,14.70
2011,08,11,02,06,14.70
2011,08,11,02,07,14.70
2011,08,11,02,08,14.70
2011,08,11,02,09,14.70
2011,08,11,02,10,14.60
2011,08,11,02,11,14.60
2011,08,11,02,12,14.60
2011,08,11,02,13,14.60
2011,08,11,02,14,14.60
2011,08,11,02,15,14.60
2011,08,11,02,16,14.60
2011,08,11,02,17,14.60
2011,08,11,02,18,14.60
2011,08,11,02,19,14.60
2011,08,11,02,20,14.60
2011,08,11,02,21,14.60
2011,08,11,02,22,14.60
2011,08,11,02,23,14.60
2011,08,11,02,24,14.60
2011,08,11,02,25,14.60
2011,08,11,02,26,14.60
2011,08,11,02,27,14.60
2011,08,11,02,28,14.60
2011,08,11,02,29,14.60
2011,08,11,02,30,14.60
2011,08,11,02,31,14.60
2011,08,11,02,32,14.60
2011,08,11,02,33,14.60
2011,08,11,02,34,14.60
2011,08,11,02,35,14.60
2011,08,11,02,36,14.60
2011,08,11,02,37,14.60
2011,08,11,02,38,14.60
2011,08,11,02,39,14.60
2011,08,11,02,40,14.60
2011,08,11,02,41,14.60
2011,08,11,02,42,14.60
2011,08,11,02,43,14.60
2011,08,11,02,44,14.60
2011,08,11,02,45,14.60
2011,08,11,02,46,14.60
2011,08,11,02,47,14.60
2011,08,11,02,48,14.60
2011,08,11,02,49,14.60
2011,08,11,02,50,14.60
2011,08,11,02,51,14.60
2011,08,11,02,52,14.60
2011,08,11,02,53,14.60
2011,08,11,02,54,14.60
2011,08,11,02,55,14.60
2011,08,11,02,56,14.60
2011,08,11,02,57,14.70
2011,08,11,02,58,14.70
2011,08,11,02,59,14.70
2011,08,11,03,00,14.70
2011,08,11,03,01,14.70
2011,08,11,03,02,14.70
2011,08,11,03,03,14.70
2011,08,11,03,04,14.70
2011,08,11,03,05,14.70
2011,08,11,03,06,14.70
2011,08,11,03,07,14.70
2011,08,11,03,08,14.70
2011,08,11,03,09,14.70
2011,08,11,03,10,14.70
2011,08,11,03,11,14.70
2011,08,11,03,12,14.70
2011,08,11,03,13,14.70
2011,08,11,03,14,14.70
2011,08,11,03,15,14.70
2011,08,11,03,16,14.70
2011,08,11,03,17,14.70
2011,08,11,03,18,14.70
2011,08,11,03,19,14.70
2011,08,11,03,20,14.70
2011,08,11,03,21,14.70
2011,08,11,03,22,14.70
2011,08,11,03,23,14.70
2011,08,11,03,24,14.70
2011,08,11,03,25,14.70
2011,08,11,03,26,14.70
2011,08,11,03,27,14.70
2011,08,11,03,28,14.70
2011,08,11,03,29,14.60
2011,08,11,03,30,14.70
2011,08,11,03,31,14.60
2011,08,11,03,32,14.60
2011,08,11,03,33,14.60
2011,08,11,03,34,14.60
2011,08,11,03,35,14.60
2011,08,11,03,36,14.60
2011,08,11,03,37,14.60
2011,08,11,03,38,14.60
2011,08,11,03,39,14.60
2011,08,11,03,40,14.60
2011,08,11,03,41,14.60
2011,08,11,03,42,14.60
2011,08,11,03,43,14.60
2011,08,11,03,44,14.60
2011,08,11,03,45,14.60
2011,08,11,03,46,14.60
2011,08,11,03,47,14.60
2011,08,11,03,48,14.60
2011,08,11,03,49,14.60
2011,08,11,03,50,14.60
2011,08,11,03,51,14.60
2011,08,11,03,52,14.60
2011,08,11,03,53,14.60
2011,08,11,03,54,14.60
2011,08,11,03,55,14.60
2011,08,11,03,56,14.60
2011,08,11,03,57,14.60
2011,08,11,03,58,14.50
2011,08,11,03,59,14.60
2011,08,11,04,00,14.60
2011,08,11,04,01,14.60
2011,08,11,04,02,14.60
2011,08,11,04,03,14.60
2011,08,11,04,04,14.60
2011,08,11,04,05,14.50
2011,08,11,04,06,14.50
2011,08,11,04,07,14.50
2011,08,11,04,08,14.60
2011,08,11,04,09,14.50
2011,08,11,04,10,14.50
2011,08,11,04,11,14.50
2011,08,11,04,12,14.50
2011,08,11,04,13,14.50
2011,08,11,04,14,14.50
2011,08,11,04,15,14.50
2011,08,11,04,16,14.50
2011,08,11,04,17,14.50
2011,08,11,04,18,14.50
2011,08,11,04,19,14.50
2011,08,11,04,20,14.50
2011,08,11,04,21,14.50
2011,08,11,04,22,14.50
2011,08,11,04,23,14.50
2011,08,11,04,24,14.50
2011,08,11,04,25,14.50
2011,08,11,04,26,14.50
2011,08,11,04,27,14.40
2011,08,11,04,28,14.40
2011,08,11,04,29,14.40
2011,08,11,04,30,14.40
2011,08,11,04,31,14.40
2011,08,11,04,32,14.50
2011,08,11,04,33,14.40
2011,08,11,04,34,14.40
2011,08,11,04,35,14.40
2011,08,11,04,36,14.40
2011,08,11,04,37,14.40
2011,08,11,04,38,14.40
2011,08,11,04,39,14.40
2011,08,11,04,40,14.40
2011,08,11,04,41,14.40
2011,08,11,04,42,14.40
2011,08,11,04,43,14.50
2011,08,11,04,44,14.40
2011,08,11,04,45,14.40
2011,08,11,04,46,14.50
2011,08,11,04,47,14.40
2011,08,11,04,48,14.40
2011,08,11,04,49,14.50
2011,08,11,04,50,14.50
2011,08,11,04,51,14.40
2011,08,11,04,52,14.50
2011,08,11,04,53,14.40
2011,08,11,04,54,14.40
2011,08,11,04,55,14.40
2011,08,11,04,56,14.40
2011,08,11,04,57,14.40
2011,08,11,04,58,14.40
2011,08,11,04,59,14.40
2011,08,11,05,00,14.40
2011,08,11,05,01,14.40
2011,08,11,05,02,14.40
2011,08,11,05,03,14.40
2011,08,11,05,04,14.40
2011,08,11,05,05,14.40
2011,08,11,05,06,14.40
2011,08,11,05,07,14.40
2011,08,11,05,08,14.40
2011,08,11,05,09,14.40
2011,08,11,05,10,14.40
2011,08,11,05,11,14.40
2011,08,11,05,12,14.40
2011,08,11,05,13,14.40
2011,08,11,05,14,14.40
2011,08,11,05,15,14.40
2011,08,11,05,16,14.40
2011,08,11,05,17,14.40
2011,08,11,05,18,14.40
2011,08,11,05,19,14.40
2011,08,11,05,20,14.30
2011,08,11,05,21,14.30
2011,08,11,05,22,14.30
2011,08,11,05,23,14.30
2011,08,11,05,24,14.30
2011,08,11,05,25,14.30
2011,08,11,05,26,14.30
2011,08,11,05,27,14.30
2011,08,11,05,28,14.30
2011,08,11,05,29,14.30
2011,08,11,05,30,14.30
2011,08,11,05,31,14.30
2011,08,11,05,32,14.30
2011,08,11,05,33,14.30
2011,08,11,05,34,14.30
2011,08,11,05,35,14.30
2011,08,11,05,36,14.30
2011,08,11,05,37,14.30
2011,08,11,05,38,14.30
2011,08,11,05,39,14.30
2011,08,11,05,40,14.30
2011,08,11,05,41,14.30
2011,08,11,05,42,14.30
2011,08,11,05,43,14.30
2011,08,11,05,44,14.30
2011,08,11,05,45,14.30
2011,08,11,05,46,14.30
2011,08,11,05,47,14.30
2011,08,11,05,48,14.30
2011,08,11,05,49,14.30
2011,08,11,05,50,14.30
2011,08,11,05,51,14.30
2011,08,11,05,52,14.30
2011,08,11,05,53,14.30
2011,08,11,05,54,14.30
2011,08,11,05,55,14.30
2011,08,11,05,56,14.30
2011,08,11,05,57,14.30
2011,08,11,05,58,14.30
2011,08,11,05,59,14.30
2011,08,11,06,00,14.30
2011,08,11,06,01,14.30
2011,08,11,06,02,14.30
2011,08,11,06,03,14.30
2011,08,11,06,04,14.30
2011,08,11,06,05,14.30
2011,08,11,06,06,14.30
2011,08,11,06,07,14.30
2011,08,11,06,08,14.30
2011,08,11,06,09,14.30
2011,08,11,06,10,14.30
2011,08,11,06,11,14.30
2011,08,11,06,12,14.30
2011,08,11,06,13,14.30
2011,08,11,06,14,14.30
2011,08,11,06,15,14.30
2011,08,11,06,16,14.30
2011,08,11,06,17,14.30
2011,08,11,06,18,14.30
2011,08,11,06,19,14.30
2011,08,11,06,20,14.30
2011,08,11,06,21,14.30
2011,08,11,06,22,14.30
2011,08,11,06,23,14.30
2011,08,11,06,24,14.30
2011,08,11,06,25,14.30
2011,08,11,06,26,14.30
2011,08,11,06,27,14.30
2011,08,11,06,28,14.30
2011,08,11,06,29,14.30
2011,08,11,06,30,14.30
2011,08,11,06,31,14.30
2011,08,11,06,32,14.30
2011,08,11,06,33,14.30
2011,08,11,06,34,14.30
2011,08,11,06,35,14.30
2011,08,11,06,36,14.30
2011,08,11,06,37,14.30
2011,08,11,06,38,14.30
2011,08,11,06,39,14.30
2011,08,11,06,40,14.30
2011,08,11,06,41,14.30
2011,08,11,06,42,14.30
2011,08,11,06,43,14.30
2011,08,11,06,44,14.30
2011,08,11,06,45,14.30
2011,08,11,06,46,14.30
2011,08,11,06,47,14.30
2011,08,11,06,48,14.30
2011,08,11,06,49,14.30
2011,08,11,06,50,14.30
2011,08,11,06,51,14.30
2011,08,11,06,52,14.30
2011,08,11,06,53,14.30
2011,08,11,06,54,14.30
2011,08,11,06,55,14.30
2011,08,11,06,56,14.30
2011,08,11,06,57,14.30
2011,08,11,06,58,14.30
2011,08,11,06,59,14.30
2011,08,11,07,00,14.30
2011,08,11,07,01,14.30
2011,08,11,07,02,14.30
2011,08,11,07,03,14.30
2011,08,11,07,04,14.40
2011,08,11,07,05,14.40
2011,08,11,07,06,14.40
2011,08,11,07,07,14.40
2011,08,11,07,08,14.40
2011,08,11,07,09,14.40
2011,08,11,07,10,14.40
2011,08,11,07,11,14.40
2011,08,11,07,12,14.40
2011,08,11,07,13,14.40
2011,08,11,07,14,14.40
2011,08,11,07,15,14.40
2011,08,11,07,16,14.40
2011,08,11,07,17,14.40
2011,08,11,07,18,14.40
2011,08,11,07,19,14.40
2011,08,11,07,20,14.40
2011,08,11,07,21,14.40
2011,08,11,07,22,14.40
2011,08,11,07,23,14.40
2011,08,11,07,24,14.40
2011,08,11,07,25,14.40
2011,08,11,07,26,14.40
2011,08,11,07,27,14.40
2011,08,11,07,28,14.40
2011,08,11,07,29,14.40
2011,08,11,07,30,14.40
2011,08,11,07,31,14.50
2011,08,11,07,32,14.50
2011,08,11,07,33,14.50
2011,08,11,07,34,14.50
2011,08,11,07,35,14.50
2011,08,11,07,36,14.50
2011,08,11,07,37,14.50
2011,08,11,07,38,14.50
2011,08,11,07,39,14.50
2011,08,11,07,40,14.50
2011,08,11,07,41,14.50
2011,08,11,07,42,14.60
2011,08,11,07,43,14.60
2011,08,11,07,44,14.60
2011,08,11,07,45,14.60
2011,08,11,07,46,14.60
2011,08,11,07,47,14.60
2011,08,11,07,48,14.60
2011,08,11,07,49,14.60
2011,08,11,07,50,14.60
2011,08,11,07,51,14.60
2011,08,11,07,52,14.60
2011,08,11,07,53,14.60
2011,08,11,07,54,14.60
2011,08,11,07,55,14.60
2011,08,11,07,56,14.60
2011,08,11,07,57,14.60
2011,08,11,07,58,14.60
2011,08,11,07,59,14.60
2011,08,11,08,00,14.60
2011,08,11,08,01,14.60
2011,08,11,08,02,14.60
2011,08,11,08,03,14.60
2011,08,11,08,04,14.60
2011,08,11,08,05,14.60
2011,08,11,08,06,14.60
2011,08,11,08,07,14.60
2011,08,11,08,08,14.70
2011,08,11,08,09,14.70
2011,08,11,08,10,14.70
2011,08,11,08,11,14.70
2011,08,11,08,12,14.70
2011,08,11,08,13,14.70
2011,08,11,08,14,14.70
2011,08,11,08,15,14.70
2011,08,11,08,16,14.70
2011,08,11,08,17,14.70
2011,08,11,08,18,14.70
2011,08,11,08,19,14.80
2011,08,11,08,20,14.80
2011,08,11,08,21,14.80
2011,08,11,08,22,14.80
2011,08,11,08,23,14.80
2011,08,11,08,24,14.80
2011,08,11,08,25,14.70
2011,08,11,08,26,14.70
2011,08,11,08,27,14.70
2011,08,11,08,28,14.70
2011,08,11,08,29,14.70
2011,08,11,08,30,14.70
2011,08,11,08,31,14.70
2011,08,11,08,32,14.70
2011,08,11,08,33,14.70
2011,08,11,08,34,14.80
2011,08,11,08,35,14.80
2011,08,11,08,36,14.80
2011,08,11,08,37,14.80
2011,08,11,08,38,14.80
2011,08,11,08,39,14.80
2011,08,11,08,40,14.80
2011,08,11,08,41,14.80
2011,08,11,08,42,14.80
2011,08,11,08,43,14.80
2011,08,11,08,44,14.80
2011,08,11,08,45,14.80
2011,08,11,08,46,14.80
2011,08,11,08,47,14.80
2011,08,11,08,48,14.80
2011,08,11,08,49,14.80
2011,08,11,08,50,14.80
2011,08,11,08,51,14.80
2011,08,11,08,52,14.80
2011,08,11,08,53,14.80
2011,08,11,08,54,14.80
2011,08,11,08,55,14.80
2011,08,11,08,56,14.80
2011,08,11,08,57,14.80
2011,08,11,08,58,14.80
2011,08,11,08,59,14.80
2011,08,11,09,00,14.80
2011,08,11,09,01,14.80
2011,08,11,09,02,14.80
2011,08,11,09,03,14.80
2011,08,11,09,04,14.80
2011,08,11,09,05,14.80
2011,08,11,09,25,15.00
2011,08,11,09,26,15.00
2011,08,11,09,27,15.00
2011,08,11,09,28,15.00
2011,08,11,09,29,15.00
2011,08,11,09,30,15.00
2011,08,11,09,31,15.00
2011,08,11,09,32,15.00
2011,08,11,09,33,15.00
2011,08,11,09,34,15.00
2011,08,11,09,35,15.00
2011,08,11,09,36,15.00
2011,08,11,09,37,15.00
2011,08,11,09,38,15.00
2011,08,11,09,39,15.00
2011,08,11,09,40,15.00
2011,08,11,09,41,15.00
2011,08,11,09,42,15.00
2011,08,11,09,43,15.00
2011,08,11,09,44,15.10
2011,08,11,09,45,15.10
2011,08,11,09,46,15.20
2011,08,11,09,47,15.20
2011,08,11,09,48,15.20
2011,08,11,09,49,15.20
2011,08,11,09,50,15.20
2011,08,11,09,51,15.20
2011,08,11,09,52,15.30
2011,08,11,09,53,15.30
2011,08,11,09,54,15.30
2011,08,11,09,55,15.30
2011,08,11,09,56,15.30
2011,08,11,09,57,15.30
2011,08,11,09,58,15.30
2011,08,11,09,59,15.30
2011,08,11,10,00,15.30
2011,08,11,10,01,15.30
2011,08,11,10,02,15.30
2011,08,11,10,03,15.30
2011,08,11,10,04,15.30
2011,08,11,10,05,15.40
2011,08,11,10,06,15.40
2011,08,11,10,07,15.40
2011,08,11,10,08,15.40
2011,08,11,10,09,15.40
2011,08,11,10,10,15.40
2011,08,11,10,11,15.40
2011,08,11,10,12,15.40
2011,08,11,10,13,15.40
2011,08,11,10,14,15.50
2011,08,11,10,15,15.50
2011,08,11,10,16,15.60
2011,08,11,10,17,15.60
2011,08,11,10,18,15.60
2011,08,11,10,19,15.60
2011,08,11,10,20,15.60
2011,08,11,10,21,15.70
2011,08,11,10,22,15.70
2011,08,11,10,23,15.70
2011,08,11,10,24,15.70
2011,08,11,10,25,15.70
2011,08,11,10,26,15.80
2011,08,11,10,27,15.80
2011,08,11,10,28,15.80
2011,08,11,10,29,15.80
2011,08,11,10,30,15.80
2011,08,11,10,31,15.80
2011,08,11,10,32,15.90
2011,08,11,10,33,16.00
2011,08,11,10,34,16.10
2011,08,11,10,35,16.10
2011,08,11,10,36,16.20
2011,08,11,10,37,16.30
2011,08,11,10,38,16.30
2011,08,11,10,39,16.30
2011,08,11,10,40,16.30
2011,08,11,10,41,16.30
2011,08,11,10,42,16.30
2011,08,11,10,43,16.30
2011,08,11,10,44,16.30
2011,08,11,22,50,14.30
2011,08,11,22,51,14.30
